Location: Sobotiste
(48.7170°N, 17.4000°E)
Time: 06:40:24
(UTC+02:00)

METEOR M2 - Pass Details

Date: 24 March 2026
Orbit: 817 x 824 km, 98.5° (Epoch: 17 April)

Event Time Altitude Azimuth Distance (km) Brightness Sun altitude
Rises 02:33:34 0° 32° (NNE) 3,371 ? -29.6°
Reaches altitude 10° 02:37:46 10° 64° (ENE) 2,430 ? -29.1°
Maximum altitude 02:39:38 12° 85° (E) 2,305 ? -28.8°
Drops below altitude 10° 02:41:30 10° 105° (ESE) 2,423 ? -28.6°
Sets 02:45:39 0° 137° (SE) 3,346 ? -28.1°
